IT9NKT-WX Weather Reports


Display with metric or nautical units.
time (UTC)temp
F
wind
direction
speed
MPH
gust
MPH
rain 1hr
in
rain 24hr
in
rain mn
in
humidity
%
barometer
mb
20260902012003 79 186 0.0 2.0 0.00 0.00 0.00 64 1017.9
20260902011504 79 151 0.0 2.0 0.00 0.00 0.00 65 1017.9
20260902011003 79 195 0.0 1.0 0.00 0.00 0.00 67 1017.9
20260902010716 79 237 0.0 0.0 0.00 0.00 0.00 67 1017.9
20260902010004 79 205 0.0 1.0 0.00 0.00 0.00 68 1017.7
20260902005717 79 218 0.0 1.0 0.00 0.00 0.00 69 1018.0
20260902005004 79 232 0.0 1.0 0.00 0.00 0.00 69 1017.8
20260902004504 79 270 0.0 1.0 0.00 0.00 0.00 71 1017.8
20260902004216 79 289 0.0 3.0 0.00 0.00 0.00 71 1017.9
20260902003503 79 273 0.0 3.0 0.00 0.00 0.00 73 1017.8
20260902003003 79 280 0.0 3.0 0.00 0.00 0.00 76 1017.7
20260902002504 79 275 0.0 3.0 0.00 0.00 0.00 76 1018.0
20260902002212 80 268 0.0 1.0 0.00 0.00 0.00 77 1017.9
20260902001503 80 270 0.0 2.0 0.00 0.00 0.00 76 1017.8
20260902001004 80 179 0.0 1.0 0.00 0.00 0.00 76 1017.9
20260902000503 80 173 0.0 1.0 0.00 0.00 0.00 76 1017.9
20260902000004 80 179 0.0 1.0 0.00 0.00 0.00 75 1017.8
20260901235503 80 166 0.0 1.0 0.00 0.00 0.00 74 1017.8
20260901235003 80 166 0.0 1.0 0.00 0.00 0.00 74 1018.0
20260901234504 80 165 0.0 1.0 0.00 0.00 0.00 73 1017.9
20260901234003 80 161 0.0 1.0 0.00 0.00 0.00 73 1017.8
20260901233503 80 170 1.0 2.0 0.00 0.00 0.00 73 1018.0
20260901233004 80 170 1.0 2.0 0.00 0.00 0.00 72 1018.0
20260901232503 80 164 1.0 2.0 0.00 0.00 0.00 73 1017.9
20260901232003 81 162 1.0 2.0 0.00 0.00 0.00 73 1018.0
20260901231504 81 163 1.0 2.0 0.00 0.00 0.00 73 1018.0
20260901230503 81 165 1.0 2.0 0.00 0.00 0.00 72 1018.1
20260901230004 81 159 1.0 2.0 0.00 0.00 0.00 72 1018.0
20260901225714 81 157 1.0 2.0 0.00 0.00 0.00 72 1018.1
20260901225004 81 166 1.0 2.0 0.00 0.00 0.00 72 1018.0
20260901224504 81 165 1.0 2.0 0.00 0.00 0.00 72 1018.0
20260901224004 81 157 1.0 2.0 0.00 0.00 0.00 71 1018.0
20260901223503 81 162 0.0 2.0 0.00 0.00 0.00 70 1017.9
20260901223214 81 161 0.0 2.0 0.00 0.00 0.00 70 1018.1
20260901222503 81 159 0.0 1.0 0.00 0.00 0.00 73 1017.9
20260901222004 82 173 0.0 1.0 0.00 0.00 0.00 72 1017.8
20260901221504 82 191 0.0 1.0 0.00 0.00 0.00 69 1017.9
20260901221003 82 0 0.0 0.0 0.00 0.00 0.00 63 1017.9
20260901220504 82 177 0.0 1.0 0.00 0.00 0.00 60 1017.6
20260901220004 82 177 0.0 1.0 0.00 0.00 0.00 60 1017.8
20260901215503 82 0 0.0 0.0 0.00 0.00 0.00 61 1017.9
20260901215212 82 0 0.0 0.0 0.00 0.00 0.00 61 1017.8
20260901214504 82 0 0.0 0.0 0.00 0.00 0.00 61 1017.7
20260901214003 83 171 0.0 1.0 0.00 0.00 0.00 61 1017.6
20260901213504 83 178 0.0 1.0 0.00 0.00 0.00 61 1017.5
20260901213214 83 178 0.0 1.0 0.00 0.00 0.00 61 1017.4
20260901212503 82 168 0.0 1.0 0.00 0.00 0.00 63 1017.5
20260901212215 82 168 0.0 1.0 0.00 0.00 0.00 63 1017.7
20260901211503 83 203 0.0 0.0 0.00 0.00 0.00 63 1017.4
20260901211004 83 197 0.0 1.0 0.00 0.00 0.00 63 1017.4
20260901210503 83 172 0.0 1.0 0.00 0.00 0.00 64 1017.3
20260901210004 83 0 0.0 0.0 0.00 0.00 0.00 67 1017.3
20260901205504 83 0 0.0 0.0 0.00 0.00 0.00 66 1017.2
20260901205003 83 0 0.0 0.0 0.00 0.00 0.00 68 1017.4
20260901204716 83 0 0.0 0.0 0.00 0.00 0.00 69 1017.2
20260901204004 83 0 0.0 0.0 0.00 0.00 0.00 69 1017.3
20260901203722 84 196 0.0 0.0 0.00 0.00 0.00 68 1017.4
20260901203215 84 197 0.0 0.0 0.00 0.00 0.00 68 1017.4
20260901202503 84 196 0.0 1.0 0.00 0.00 0.00 67 1017.6
20260901202005 84 196 0.0 1.0 0.00 0.00 0.00 66 1017.5
20260901201503 84 0 0.0 0.0 0.00 0.00 0.00 65 1017.3
20260901201217 84 0 0.0 0.0 0.00 0.00 0.00 65 1017.4
20260901200504 84 0 0.0 0.0 0.00 0.00 0.00 66 1017.4
20260901200004 84 0 0.0 0.0 0.00 0.00 0.00 65 1017.6
20260901195503 84 0 0.0 0.0 0.00 0.00 0.00 66 1017.6
20260901195004 84 307 0.0 2.0 0.00 0.00 0.00 66 1017.6
20260901194504 84 289 1.0 2.0 0.00 0.00 0.00 66 1017.6
20260901194215 84 278 1.0 2.0 0.00 0.00 0.00 66 1017.6
20260901193713 84 277 1.0 2.0 0.00 0.00 0.00 67 1017.3
20260901193003 84 282 0.0 2.0 0.00 0.00 0.00 68 1017.3
20260901192504 84 38 0.0 1.0 0.00 0.00 0.00 69 1017.4
20260901192003 84 0 0.0 0.0 0.00 0.00 0.00 70 1017.5
20260901191503 84 0 0.0 0.0 0.00 0.00 0.00 70 1017.5
20260901191217 84 0 0.0 0.0 0.00 0.00 0.00 70 1017.5
20260901190503 84 158 0.0 1.0 0.00 0.00 0.00 71 1017.4
20260901190003 84 137 0.0 2.0 0.00 0.00 0.00 71 1017.5
20260901185504 84 127 0.0 2.0 0.00 0.00 0.00 72 1017.3
20260901185004 84 106 0.0 2.0 0.00 0.00 0.00 72 1017.0
20260901184717 84 107 0.0 2.0 0.00 0.00 0.00 72 1017.1
20260901184003 84 93 1.0 3.0 0.00 0.00 0.00 72 1017.2
20260901183504 84 134 1.0 3.0 0.00 0.00 0.00 72 1017.0
20260901183216 84 146 1.0 3.0 0.00 0.00 0.00 72 1017.1
20260901182504 83 133 1.0 4.0 0.00 0.00 0.00 73 1017.0
20260901182217 83 122 2.0 6.0 0.00 0.00 0.00 74 1016.8
20260901181503 83 127 2.0 6.0 0.00 0.00 0.00 75 1016.8
20260901181003 84 131 2.0 6.0 0.00 0.00 0.00 76 1016.7
20260901180504 84 128 2.0 6.0 0.00 0.00 0.00 75 1016.8
20260901180003 84 144 2.0 4.0 0.00 0.00 0.00 73 1016.7
20260901175717 84 146 2.0 4.0 0.00 0.00 0.00 72 1016.7
20260901175003 85 140 2.0 4.0 0.00 0.00 0.00 71 1016.5
20260901174504 85 136 2.0 4.0 0.00 0.00 0.00 70 1016.3
20260901174006 85 134 1.0 4.0 0.00 0.00 0.00 69 1016.5
20260901173503 86 138 1.0 4.0 0.00 0.00 0.00 67 1016.5
20260901173003 86 151 1.0 4.0 0.00 0.00 0.00 64 1016.4
20260901172503 87 160 1.0 3.0 0.00 0.00 0.00 62 1016.4
20260901172004 86 143 1.0 3.0 0.00 0.00 0.00 57 1016.4
20260901171503 87 112 1.0 3.0 0.00 0.00 0.00 56 1016.2
20260901171003 87 108 1.0 6.0 0.00 0.00 0.00 57 1016.3
20260901170503 87 108 1.0 6.0 0.00 0.00 0.00 55 1016.4
20260901170004 87 124 1.0 4.0 0.00 0.00 0.00 55 1016.3
20260901165718 87 110 1.0 4.0 0.00 0.00 0.00 58 1016.2
20260901165004 87 87 1.0 6.0 0.00 0.00 0.00 59 1016.3
20260901164503 87 100 1.0 6.0 0.00 0.00 0.00 60 1016.3
20260901164003 87 98 1.0 5.0 0.00 0.00 0.00 59 1016.3
20260901163504 87 104 2.0 8.0 0.00 0.00 0.00 55 1016.3
20260901163217 87 107 2.0 8.0 0.00 0.00 0.00 57 1016.1
20260901162503 88 67 2.0 4.0 0.00 0.00 0.00 52 1016.2
20260901162003 88 86 2.0 7.0 0.00 0.00 0.00 56 1016.3
20260901161503 88 105 3.0 7.0 0.00 0.00 0.00 55 1016.4
20260901161005 87 92 3.0 8.0 0.00 0.00 0.00 54 1016.1
20260901160504 88 58 2.0 8.0 0.00 0.00 0.00 52 1016.1
20260901160003 88 59 1.0 4.0 0.00 0.00 0.00 51 1016.2
20260901155503 88 93 2.0 7.0 0.00 0.00 0.00 57 1016.4
20260901155004 88 99 3.0 10.0 0.00 0.00 0.00 58 1016.1
20260901154504 88 108 3.0 10.0 0.00 0.00 0.00 54 1016.3
20260901154212 88 94 4.0 10.0 0.00 0.00 0.00 53 1016.0
20260901153503 89 67 3.0 8.0 0.00 0.00 0.00 49 1016.1
20260901153213 89 75 2.0 8.0 0.00 0.00 0.00 51 1016.1
20260901152503 88 95 3.0 13.0 0.00 0.00 0.00 50 1016.1
20260901152004 89 101 3.0 13.0 0.00 0.00 0.00 50 1016.5
20260901151504 89 95 4.0 10.0 0.00 0.00 0.00 53 1016.1
20260901151003 89 80 4.0 14.0 0.00 0.00 0.00 52 1016.0
20260901150504 89 83 4.0 14.0 0.00 0.00 0.00 51 1016.3
20260901150216 89 85 3.0 10.0 0.00 0.00 0.00 50 1016.0
20260901145505 90 100 3.0 11.0 0.00 0.00 0.00 49 1016.1
20260901145217 90 97 4.0 11.0 0.00 0.00 0.00 49 1015.8
20260901144503 90 60 4.0 14.0 0.00 0.00 0.00 47 1015.8
20260901144004 90 69 4.0 13.0 0.00 0.00 0.00 47 1015.8
20260901143503 90 75 3.0 13.0 0.00 0.00 0.00 48 1015.7
20260901143003 90 79 4.0 11.0 0.00 0.00 0.00 49 1015.7
20260901142504 90 81 4.0 11.0 0.00 0.00 0.00 48 1015.7
20260901142003 90 81 3.0 9.0 0.00 0.00 0.00 46 1015.7
20260901141503 90 94 4.0 10.0 0.00 0.00 0.00 43 1015.6
20260901141003 90 104 2.0 10.0 0.00 0.00 0.00 42 1015.8
20260901140504 92 110 2.0 8.0 0.00 0.00 0.00 41 1015.9
20260901140217 92 100 2.0 8.0 0.00 0.00 0.00 41 1015.6
20260901135503 91 71 2.0 10.0 0.00 0.00 0.00 42 1015.6
20260901135003 92 84 3.0 10.0 0.00 0.00 0.00 41 1015.8
20260901134503 91 95 3.0 9.0 0.00 0.00 0.00 41 1015.8
20260901134003 91 103 4.0 8.0 0.00 0.00 0.00 42 1016.0
20260901133503 91 128 4.0 10.0 0.00 0.00 0.00 40 1015.9
20260901133214 92 125 3.0 10.0 0.00 0.00 0.00 42 1016.2
20260901132503 92 141 3.0 6.0 0.00 0.00 0.00 39 1016.1
20260901132004 92 137 3.0 10.0 0.00 0.00 0.00 40 1016.2
20260901131503 92 145 3.0 10.0 0.00 0.00 0.00 40 1016.1
20260901131003 92 131 2.0 11.0 0.00 0.00 0.00 41 1016.2
20260901130503 92 95 2.0 11.0 0.00 0.00 0.00 42 1016.2
20260901130004 91 93 3.0 8.0 0.00 0.00 0.00 45 1016.4
20260901125503 90 91 2.0 8.0 0.00 0.00 0.00 42 1016.5
20260901125213 91 88 2.0 8.0 0.00 0.00 0.00 45 1016.5
20260901124505 92 65 2.0 7.0 0.00 0.00 0.00 46 1016.5
20260901124214 92 76 2.0 7.0 0.00 0.00 0.00 46 1016.5
20260901123503 93 137 2.0 6.0 0.00 0.00 0.00 44 1016.5
20260901123004 92 134 3.0 6.0 0.00 0.00 0.00 45 1016.6
20260901122503 92 120 2.0 9.0 0.00 0.00 0.00 45 1016.6
20260901122216 91 116 2.0 9.0 0.00 0.00 0.00 46 1016.5
20260901121504 91 82 2.0 8.0 0.00 0.00 0.00 47 1016.6
20260901121004 91 79 2.0 6.0 0.00 0.00 0.00 47 1016.7
20260901120503 91 102 2.0 5.0 0.00 0.00 0.00 49 1016.7
20260901120003 91 121 3.0 9.0 0.00 0.00 0.00 50 1016.6
20260901115503 92 100 3.0 9.0 0.00 0.00 0.00 50 1016.4
20260901115003 90 89 3.0 11.0 0.00 0.00 0.00 52 1016.8
20260901114503 90 109 4.0 11.0 0.00 0.00 0.00 56 1016.5
20260901114004 89 111 4.0 9.0 0.00 0.00 0.00 56 1016.6
20260901113504 90 99 3.0 8.0 0.00 0.00 0.00 59 1016.3
20260901113003 91 73 2.0 8.0 0.00 0.00 0.00 57 1016.4
20260901112503 91 77 2.0 9.0 0.00 0.00 0.00 57 1016.3
20260901112003 92 79 2.0 9.0 0.00 0.00 0.00 55 1016.3
20260901111504 91 98 2.0 8.0 0.00 0.00 0.00 57 1016.3
20260901111003 92 125 3.0 9.0 0.00 0.00 0.00 56 1016.2
20260901110504 90 110 3.0 9.0 0.00 0.00 0.00 59 1016.4
20260901110004 90 103 2.0 9.0 0.00 0.00 0.00 57 1016.5
20260901105503 90 100 3.0 9.0 0.00 0.00 0.00 59 1016.4
20260901105003 90 116 3.0 10.0 0.00 0.00 0.00 58 1016.6
20260901104503 92 157 3.0 10.0 0.00 0.00 0.00 56 1016.5
20260901104003 92 156 3.0 7.0 0.00 0.00 0.00 57 1016.5
20260901103503 92 151 3.0 7.0 0.00 0.00 0.00 57 1016.2
20260901103003 93 171 3.0 8.0 0.00 0.00 0.00 55 1016.6
20260901102504 92 189 4.0 8.0 0.00 0.00 0.00 56 1016.5
20260901102004 91 190 3.0 7.0 0.00 0.00 0.00 57 1016.5
20260901101503 91 187 2.0 8.0 0.00 0.00 0.00 57 1016.4
20260901101003 92 160 2.0 8.0 0.00 0.00 0.00 55 1016.7
20260901100504 91 128 2.0 7.0 0.00 0.00 0.00 57 1016.8
20260901100214 92 124 2.0 6.0 0.00 0.00 0.00 55 1016.9
20260901095717 91 137 2.0 7.0 0.00 0.00 0.00 59 1016.7
20260901095003 90 107 2.0 7.0 0.00 0.00 0.00 57 1016.9
20260901094504 91 147 2.0 6.0 0.00 0.00 0.00 57 1016.7
20260901094004 92 162 2.0 4.0 0.00 0.00 0.00 56 1016.7
20260901093503 90 155 2.0 4.0 0.00 0.00 0.00 57 1016.6
20260901093004 90 121 2.0 8.0 0.00 0.00 0.00 56 1017.0
20260901092503 89 101 2.0 8.0 0.00 0.00 0.00 58 1016.9
20260901092003 89 120 3.0 6.0 0.00 0.00 0.00 58 1017.1
20260901091716 89 119 3.0 9.0 0.00 0.00 0.00 58 1017.0
20260901091004 90 115 2.0 9.0 0.00 0.00 0.00 56 1016.9
20260901090503 88 95 2.0 4.0 0.00 0.00 0.00 58 1016.9
20260901090003 87 86 2.0 5.0 0.00 0.00 0.00 59 1016.9
20260901085503 89 68 2.0 8.0 0.00 0.00 0.00 56 1016.8
20260901085216 89 67 2.0 8.0 0.00 0.00 0.00 56 1016.7
20260901084503 90 152 1.0 4.0 0.00 0.00 0.00 48 1016.8
20260901084217 90 191 1.0 4.0 0.00 0.00 0.00 48 1016.8
20260901083505 90 187 2.0 4.0 0.00 0.00 0.00 47 1016.7
20260901083004 90 163 1.0 4.0 0.00 0.00 0.00 47 1016.8
20260901082503 90 106 1.0 3.0 0.00 0.00 0.00 46 1016.6
20260901082003 89 116 1.0 3.0 0.00 0.00 0.00 48 1016.8
20260901081716 89 112 1.0 4.0 0.00 0.00 0.00 48 1016.6
20260901081003 88 80 1.0 4.0 0.00 0.00 0.00 49 1016.6
20260901080503 88 137 1.0 3.0 0.00 0.00 0.00 48 1016.7
20260901080215 90 174 2.0 4.0 0.00 0.00 0.00 46 1016.4
20260901075504 89 186 2.0 4.0 0.00 0.00 0.00 46 1016.4
20260901075003 89 190 2.0 6.0 0.00 0.00 0.00 46 1016.6
20260901074503 90 191 1.0 6.0 0.00 0.00 0.00 45 1016.4
20260901074003 90 190 1.0 3.0 0.00 0.00 0.00 45 1016.1
20260901073503 89 192 1.0 4.0 0.00 0.00 0.00 46 1016.4
20260901073004 89 189 1.0 4.0 0.00 0.00 0.00 46 1016.4
20260901072503 90 188 1.0 3.0 0.00 0.00 0.00 46 1016.3
20260901072214 89 191 1.0 3.0 0.00 0.00 0.00 46 1016.4
20260901071503 89 199 2.0 4.0 0.00 0.00 0.00 47 1016.3
20260901071215 88 199 2.0 4.0 0.00 0.00 0.00 47 1016.4
20260901070713 87 198 2.0 4.0 0.00 0.00 0.00 49 1016.4
20260901070216 88 191 2.0 4.0 0.00 0.00 0.00 49 1016.1
20260901065503 87 195 1.0 4.0 0.00 0.00 0.00 51 1016.3
20260901065003 88 190 1.0 2.0 0.00 0.00 0.00 51 1016.3
20260901064503 89 175 0.0 3.0 0.00 0.00 0.00 52 1016.1
20260901064004 89 169 0.0 3.0 0.00 0.00 0.00 54 1016.3
20260901063503 88 195 1.0 2.0 0.00 0.00 0.00 52 1016.3
20260901063214 87 193 1.0 2.0 0.00 0.00 0.00 54 1016.3
20260901062503 88 183 1.0 2.0 0.00 0.00 0.00 56 1016.3
20260901062004 87 180 1.0 2.0 0.00 0.00 0.00 56 1016.2
20260901061503 88 172 0.0 2.0 0.00 0.00 0.00 54 1016.0
20260901061003 87 158 0.0 1.0 0.00 0.00 0.00 54 1016.3
20260901060504 87 57 0.0 3.0 0.00 0.00 0.00 56 1016.2
20260901060003 86 28 0.0 3.0 0.00 0.00 0.00 58 1016.1
20260901055504 86 134 0.0 1.0 0.00 0.00 0.00 61 1016.4
20260901055003 85 148 0.0 2.0 0.00 0.00 0.00 62 1016.3
20260901054504 85 144 0.0 2.0 0.00 0.00 0.00 64 1016.1
20260901054004 84 166 0.0 1.0 0.00 0.00 0.00 66 1016.1
20260901053504 83 175 0.0 1.0 0.00 0.00 0.00 68 1016.2
20260901053004 83 161 0.0 1.0 0.00 0.00 0.00 68 1016.3
20260901052503 82 149 0.0 1.0 0.00 0.00 0.00 69 1016.3
20260901052004 82 155 0.0 1.0 0.00 0.00 0.00 70 1016.3
20260901051713 82 163 0.0 1.0 0.00 0.00 0.00 71 1016.3
20260901051003 81 172 0.0 1.0 0.00 0.00 0.00 72 1016.0
20260901050504 80 174 0.0 0.0 0.00 0.00 0.00 73 1016.1
20260901050003 79 181 0.0 1.0 0.00 0.00 0.00 73 1016.1
20260901045504 79 177 0.0 1.0 0.00 0.00 0.00 74 1016.1
20260901045003 78 171 0.0 1.0 0.00 0.00 0.00 74 1016.0
20260901044506 78 173 0.0 1.0 0.00 0.00 0.00 75 1016.1
20260901044004 78 180 0.0 1.0 0.00 0.00 0.00 75 1016.1
20260901043503 78 189 0.0 2.0 0.00 0.00 0.00 75 1016.0
20260901043003 78 183 0.0 2.0 0.00 0.00 0.00 75 1016.0
20260901042504 78 180 0.0 1.0 0.00 0.00 0.00 75 1015.8
20260901042216 78 187 0.0 1.0 0.00 0.00 0.00 75 1015.9
20260901041503 78 175 0.0 1.0 0.00 0.00 0.00 74 1015.7
20260901041004 78 177 0.0 1.0 0.00 0.00 0.00 74 1015.5
20260901040504 78 182 0.0 1.0 0.00 0.00 0.00 73 1015.4
20260901040004 78 187 0.0 1.0 0.00 0.00 0.00 74 1015.3
20260901035716 78 190 0.0 1.0 0.00 0.00 0.00 74 1015.4
20260901035004 78 184 0.0 1.0 0.00 0.00 0.00 73 1015.3
20260901034504 78 171 0.0 2.0 0.00 0.00 0.00 72 1015.2
20260901034004 78 173 0.0 2.0 0.00 0.00 0.00 72 1015.2
20260901033503 79 177 0.0 1.0 0.00 0.00 0.00 72 1015.4
20260901033216 79 176 0.0 1.0 0.00 0.00 0.00 71 1015.3
20260901032503 78 181 0.0 1.0 0.00 0.00 0.00 72 1015.2
20260901032217 78 190 0.0 1.0 0.00 0.00 0.00 72 1015.5
20260901031504 79 0 0.0 0.0 0.00 0.00 0.00 72 1015.4
20260901031003 79 0 0.0 0.0 0.00 0.00 0.00 72 1015.4
20260901030503 79 186 0.0 0.0 0.00 0.00 0.00 71 1015.4
20260901030004 80 177 0.0 2.0 0.00 0.00 0.00 71 1015.3
20260901025504 80 193 0.0 2.0 0.00 0.00 0.00 70 1015.5
20260901025003 80 352 0.0 2.0 0.00 0.00 0.00 70 1015.4
20260901024504 80 43 0.0 2.0 0.00 0.00 0.00 70 1015.6
20260901024004 80 43 0.0 2.0 0.00 0.00 0.00 70 1015.7
20260901023504 80 12 1.0 5.0 0.00 0.00 0.00 70 1015.6
20260901023003 80 13 2.0 6.0 0.00 0.00 0.00 70 1015.8
20260901022714 80 7 3.0 8.0 0.00 0.00 0.00 70 1015.7
20260901022003 80 352 3.0 8.0 0.00 0.00 0.00 69 1015.8
20260901021504 79 334 1.0 4.0 0.00 0.00 0.00 70 1015.8
20260901021004 80 268 0.0 2.0 0.00 0.00 0.00 74 1015.7
20260901020716 79 260 0.0 1.0 0.00 0.00 0.00 74 1015.8
20260901020003 80 233 0.0 2.0 0.00 0.00 0.00 74 1015.8
20260901015503 80 230 0.0 2.0 0.00 0.00 0.00 75 1015.8
20260901015003 80 197 0.0 1.0 0.00 0.00 0.00 76 1015.9
20260901014503 80 213 0.0 1.0 0.00 0.00 0.00 76 1016.0
20260901014003 80 248 0.0 1.0 0.00 0.00 0.00 77 1015.9
20260901013504 80 247 0.0 0.0 0.00 0.00 0.00 77 1015.8
20260901013217 80 223 0.0 1.0 0.00 0.00 0.00 77 1015.6
20260901012503 80 244 0.0 1.0 0.00 0.00 0.00 78 1015.8